Regional Weather Roundup
Issued by NWS

Home | Current Version | Previous Version | Text Only | Print | Product List | Glossary On
Versions: 1 2 3 4 5 6 7 8 9 10 11 12 13 14 15 16 17 18 19 20 21 22 23 24 25 26 27 28 29 30 31 32 33 34 35 36 37 38 39 40 41 42 43 44 45 46 47 48 49 50
858
ASUS44 KLIX 200711
RWRLA
LOUISIANA WEATHER ROUNDUP
NATIONAL WEATHER SERVICE NEW ORLEANS LA
200 AM CDT MON APR 20 2015

NOTE: "FAIR" INDICATES FEW OR NO CLOUDS BELOW 12,000 FEET WITH NO
      SIGNIFICANT WEATHER AND/OR OBSTRUCTIONS TO VISIBILITY.
      SKY/WX - SKY CONDITION AND SIGNIFICANT WEATHER.
      TMP - AIR TEMPERATURE.    DP   - DEWPOINT TEMPERATURE.
      RH  - RELATIVE HUMIDITY.  PRES - PRESSURE.
      HX  - HEAT INDEX.         WCI  - WIND CHILL INDEX.

*  THESE STATIONS ARE NOT NWS OR FAA STATIONS AND ARE NOT UNDER
   NWS QUALITY CONTROL.

LAZ040-048-061>063-065-066-069-200800-
SOUTHEAST LOUISIANA

CITY           SKY/WX    TMP DP  RH WIND       PRES   REMARKS
N.O. AUDUBON     N/A     73  70  90 MISG        N/A
N.O. INTL ARPT MOCLDY    72  68  87 W12       29.83S
N.O. LAKEFRONT PTCLDY    76  69  79 W20       29.83R
SLIDELL        PTCLDY    73  70  90 VRB3      29.83R
BATON ROUGE    CLOUDY    70  66  87 S10       29.82F
BOOTHVILLE     MOCLDY    74  73  97 NW5       29.84R FOG
BELLE CHASSE   MOCLDY    73  69  87 SW7       29.83R
BOGALUSA*        N/A     69  62  78 W3        29.83F
GALLIANO*      CLOUDY    76  71  83 W8        29.84F
NEW ROADS*     FAIR      68  65  90 S3        29.80F
GONZALES*      FAIR      71  71  99 S5        29.80F
HAMMOND*       MOCLDY    68  63  83 S3        29.83F
HOUMA*         CLOUDY    73  70  92 SW6       29.85F
PORT FOURCHON* PTSUNNY   75  72  88 W8G14     29.86F

$$

LAZ041-044-053-054-200800-
SOUTHWEST LOUISIANA

CITY           SKY/WX    TMP DP  RH WIND       PRES   REMARKS
LAKE CHARLES   CLOUDY    69  57  65 W5        29.82F
LAFAYETTE      CLOUDY    74  55  51 W14       29.82R
PATTERSON      CLOUDY    73  64  73 W9        29.83F
SALT POINT       N/A     75  65  70 W6        29.81F
NEW IBERIA     CLOUDY    72  63  73 W3        29.82F
CHENAULT AIRPK MOCLDY    69  57  64 W3        29.83F

$$

LAZ027-028-200800-
CENTRAL LOUISIANA

CITY           SKY/WX    TMP DP  RH WIND       PRES   REMARKS
FORT POLK      CLEAR     63  62  97 N2        29.81F FOG
ALEXANDRIA INT PTCLDY    61  61 100 CALM      29.79F
ALEXANDRIA     PTCLDY    60  59  96 CALM      29.81F

$$

LAZ001-002-200800-
NORTHWEST LOUISIANA

CITY           SKY/WX    TMP DP  RH WIND       PRES   REMARKS
SHREVEPORT     PTCLDY    63  52  67 NW15      29.84R
BARKSDALE AFB  CLEAR     61  52  73 NW9       29.83R
DTN SHREVEPORT CLEAR     62  52  69 NW7       29.84R

$$

LAZ014-016-200800-
NORTHEAST LOUISIANA

CITY           SKY/WX    TMP DP  RH WIND       PRES   REMARKS
MONROE         CLEAR     63  59  87 W6        29.79S
TALLULAH       CLEAR     67  58  72 W6        29.76F

$$




USA.gov is the U.S. government's official web portal to all federal, state and local government web resources and services.